GW6539 Weather Reports


time (UTC)temp
F
wind
direction
speed
knots
gust
knots
rain 1hr
in
rain 24hr
in
rain mn
in
humidity
%
barometer
mb
20260509173746 80 132 8.7 12.2 0.00 0.03 0.03 87 1010.5
20260509173242 80 128 9.6 13.9 0.00 0.03 0.03 87 1010.5
20260509172738 80 121 10.4 14.8 0.00 0.03 0.03 87 1010.5
20260509172235 80 125 7.8 10.4 0.00 0.03 0.03 88 1010.5
20260509171730 80 117 7.8 11.3 0.00 0.02 0.02 88 1010.8
20260509171227 81 125 6.1 9.6 0.00 0.02 0.02 87 1010.8
20260509170723 81 125 8.7 13.0 0.00 0.02 0.02 86 1010.8
20260509170219 81 127 7.8 10.4 0.00 0.01 0.01 86 1011.1
20260509165718 81 135 5.2 8.7 0.00 0.01 0.01 85 1011.1
20260509165213 81 127 6.1 12.2 0.00 0.01 0.01 84 1011.1
20260509164709 81 123 9.6 15.6 0.00 0.01 0.01 84 1010.8
20260509164205 81 115 7.8 10.4 0.00 0.01 0.01 85 1010.8
20260509163703 81 124 10.4 13.9 0.00 0.01 0.01 86 1010.8
20260509163159 80 131 8.7 11.3 0.00 0.01 0.01 86 1010.8
20260509162657 80 116 7.8 12.2 0.00 0.01 0.01 86 1010.8
20260509162152 80 123 7.8 11.3 0.00 0.01 0.01 86 1010.8
20260509161648 81 114 8.7 13.0 0.00 0.01 0.01 87 1010.8
20260509161144 81 109 9.6 13.9 0.00 0.01 0.01 87 1011.1
20260509160640 81 121 7.0 9.6 0.00 0.01 0.01 86 1011.1
20260509160135 81 115 9.6 15.6 0.00 0.01 0.01 87 1011.5
20260509155632 81 121 8.7 14.8 0.00 0.01 0.01 88 1011.5
20260509155128 81 116 11.3 16.5 0.00 0.01 0.01 88 1011.5
20260509154624 81 120 10.4 16.5 0.00 0.01 0.01 87 1011.5
20260509154121 80 115 7.8 11.3 0.00 0.01 0.01 87 1011.5
20260509153618 80 120 8.7 11.3 0.00 0.01 0.01 87 1011.1
20260509153115 80 118 7.8 11.3 0.00 0.01 0.01 88 1011.1
20260509152611 80 117 7.8 10.4 0.00 0.01 0.01 88 1011.1
20260509152108 80 111 9.6 13.9 0.00 0.01 0.01 88 1011.5
20260509151604 80 106 8.7 12.2 0.00 0.01 0.01 88 1011.8
20260509151102 80 128 6.1 11.3 0.00 0.01 0.01 89 1011.8
20260509150559 80 118 7.0 9.6 0.00 0.01 0.01 88 1011.8
20260509150058 80 113 7.0 9.6 0.00 0.01 0.01 89 1011.8
20260509145553 80 121 7.8 11.3 0.00 0.01 0.01 89 1011.8
20260509145049 80 109 7.0 10.4 0.00 0.01 0.01 89 1011.8
20260509144546 80 119 4.3 5.2 0.00 0.01 0.01 89 1012.2
20260509144043 80 109 4.3 7.0 0.00 0.01 0.01 89 1012.2
20260509143540 80 121 6.1 8.7 0.00 0.01 0.01 89 1012.2
20260509143038 80 114 7.0 11.3 0.00 0.01 0.01 90 1012.5
20260509142533 80 100 5.2 7.8 0.00 0.01 0.01 89 1012.5
20260509142029 80 94 7.0 10.4 0.00 0.01 0.01 88 1012.5
20260509141525 80 115 9.6 13.9 0.00 0.01 0.01 88 1012.5
20260509141022 80 113 7.0 10.4 0.00 0.00 0.00 88 1012.5
20260509140519 80 95 9.6 14.8 0.00 0.00 0.00 88 1012.5
20260509140017 80 115 9.6 13.0 0.00 2.45 2.45 88 1012.8
20260509135514 80 102 10.4 18.2 0.00 2.45 2.45 88 1012.5
20260509135011 80 103 8.7 13.9 0.00 2.45 2.45 88 1012.8
20260509134508 80 109 8.7 13.0 0.00 2.45 2.45 87 1012.8
20260509134006 80 119 7.8 11.3 0.00 2.45 2.45 87 1012.8
20260509133502 80 111 6.1 9.6 0.00 2.45 2.45 88 1012.8
20260509133000 80 109 7.8 12.2 0.00 2.45 2.45 89 1012.5
20260509132459 80 91 9.6 13.0 0.00 2.45 2.45 88 1012.5
20260509131955 80 107 8.7 15.6 0.00 2.45 2.45 88 1012.5
20260509131452 80 85 7.8 11.3 0.00 2.45 2.45 87 1012.5
20260509130949 80 92 10.4 13.0 0.00 2.45 2.45 88 1012.8
20260509130444 80 96 7.8 10.4 0.00 2.45 2.45 87 1012.5
20260509125942 80 105 9.6 13.9 0.00 2.45 2.45 87 1012.5
20260509125438 80 105 4.3 7.8 0.00 2.45 2.45 87 1012.5
20260509124934 80 116 7.8 11.3 0.00 2.45 2.45 88 1012.2
20260509124431 80 122 6.1 9.6 0.00 2.45 2.45 88 1012.2
20260509123929 80 109 7.0 13.0 0.00 2.45 2.45 88 1012.2
20260509123426 79 109 7.8 11.3 0.00 2.45 2.45 88 1012.2
20260509122922 79 111 7.8 9.6 0.00 2.45 2.45 88 1012.2
20260509122419 79 107 7.8 13.0 0.00 2.45 2.45 88 1012.2
20260509121915 79 103 10.4 16.5 0.00 2.45 2.45 88 1012.2
20260509121413 79 105 10.4 15.6 0.00 2.45 2.45 88 1012.2
20260509120911 79 124 7.0 11.3 0.00 2.45 2.45 89 1012.5
20260509120408 79 103 7.0 9.6 0.00 2.45 2.45 88 1012.2
20260509115906 80 99 11.3 15.6 0.00 2.45 2.45 89 1011.8
20260509115403 80 115 7.8 10.4 0.00 2.45 2.45 89 1012.2
20260509114901 80 108 9.6 13.9 0.00 2.45 2.45 88 1011.8
20260509114359 80 106 10.4 14.8 0.00 2.45 2.45 89 1011.8
20260509113858 80 117 7.0 10.4 0.00 2.45 2.45 89 1011.8
20260509113355 80 100 8.7 12.2 0.00 2.45 2.45 89 1011.8
20260509112851 79 113 7.8 12.2 0.00 2.45 2.45 89 1011.8
20260509112348 79 100 7.8 12.2 0.00 2.45 2.45 89 1011.5
20260509111846 79 92 9.6 15.6 0.00 2.45 2.45 89 1011.5
20260509111342 80 110 7.8 10.4 0.00 2.45 2.45 90 1011.8
20260509110840 80 113 9.6 17.4 0.00 2.45 2.45 90 1011.8
20260509110336 80 112 7.8 9.6 0.00 2.44 2.44 89 1011.8
20260509105835 80 109 11.3 14.8 0.00 2.44 2.44 89 1011.8
20260509105332 79 119 7.8 13.9 0.00 2.44 2.44 88 1011.8
20260509104829 79 118 7.8 12.2 0.00 2.44 2.44 89 1011.8
20260509104325 79 112 7.8 12.2 0.00 2.44 2.44 89 1011.8
20260509103823 79 118 10.4 14.8 0.00 2.44 2.44 89 1011.5
20260509103320 80 120 7.0 10.4 0.00 2.44 2.44 89 1011.5
20260509102820 79 111 7.8 12.2 0.00 2.44 2.44 89 1011.5
20260509102316 79 115 10.4 16.5 0.00 2.44 2.44 88 1011.5
20260509101812 79 112 8.7 14.8 0.00 2.44 2.44 89 1011.5
20260509101308 79 123 10.4 15.6 0.00 2.44 2.44 89 1011.5
20260509100806 79 111 13.0 20.0 0.00 2.44 2.44 90 1011.1
20260509100303 79 119 13.9 18.2 0.00 2.44 2.44 90 1011.1
20260509095759 79 126 12.2 18.2 0.00 2.44 2.44 90 1011.1
20260509095257 79 124 11.3 18.2 0.00 2.44 2.44 90 1011.1
20260509094754 79 109 13.0 20.0 0.00 2.44 2.44 90 1011.1
20260509094250 79 112 13.0 17.4 0.00 2.44 2.44 90 1011.1
20260509093748 79 125 12.2 21.7 0.00 2.44 2.44 90 1011.1
20260509093245 79 119 12.2 19.1 0.00 2.44 2.44 90 1010.8
20260509092744 79 117 11.3 20.0 0.00 2.44 2.44 90 1010.8
20260509092241 78 115 11.3 22.6 0.00 2.44 2.44 90 1010.8
20260509091739 78 120 14.8 23.5 0.00 2.44 2.44 90 1010.5
20260509091235 78 113 8.7 13.0 0.00 2.44 2.44 91 1010.8
20260509090733 78 112 7.8 12.2 0.47 2.43 2.43 90 1010.8
20260509090230 78 103 10.4 14.8 0.00 2.43 2.43 90 1010.8
20260509085728 78 119 11.3 16.5 0.47 2.42 2.42 90 1010.8
20260509085225 78 128 8.7 13.0 0.00 2.42 2.42 90 1010.5
20260509084721 78 121 9.6 18.2 0.00 2.42 2.42 91 1010.5
20260509084218 78 120 14.8 20.9 0.00 2.42 2.42 91 1010.5
20260509083716 78 130 11.3 16.5 0.00 2.42 2.42 91 1010.5
20260509083212 78 125 13.9 20.9 0.00 2.42 2.42 91 1010.5
20260509082709 79 125 9.6 14.8 0.00 2.41 2.41 91 1010.1
20260509082206 79 104 10.4 13.9 0.00 2.39 2.39 92 1010.1
20260509081702 78 121 10.4 16.5 0.00 2.38 2.38 92 1010.1
20260509081200 78 127 9.6 13.0 0.00 2.36 2.36 92 1009.8
20260509080658 78 122 12.2 17.4 0.47 2.32 2.32 92 1009.8
20260509080155 78 121 9.6 13.0 0.94 2.23 2.23 92 1009.8
20260509075654 78 127 12.2 19.1 0.00 2.19 2.19 92 1009.8
20260509075151 78 129 10.4 16.5 0.00 2.17 2.17 91 1009.8
20260509074648 78 131 11.3 19.1 0.00 2.16 2.16 91 1009.4
20260509074144 78 132 11.3 17.4 0.47 2.15 2.15 91 1009.4
20260509073641 79 127 13.9 21.7 0.00 2.15 2.15 91 1009.8
20260509073137 79 115 10.4 19.1 0.00 2.14 2.14 92 1009.4
20260509072634 79 132 7.8 11.3 0.00 2.13 2.13 92 1009.8
20260509072131 79 119 8.7 13.0 0.00 2.12 2.12 92 1009.4
20260509071628 79 118 9.6 15.6 0.00 2.11 2.11 93 1009.4
20260509071125 78 120 9.6 14.8 0.47 2.10 2.10 92 1009.4
20260509070622 78 125 7.0 11.3 0.00 2.09 2.09 92 1009.4
20260509070118 78 108 11.3 15.6 0.94 2.03 2.03 92 1009.4
20260509065614 78 102 13.0 21.7 0.00 1.99 1.99 92 1009.1
20260509065110 78 104 8.7 13.9 0.47 1.94 1.94 92 1009.1
20260509064608 78 126 11.3 20.0 0.94 1.84 1.84 92 1009.4
20260509064106 78 125 10.4 15.6 0.47 1.79 1.79 92 1009.4
20260509063602 78 146 11.3 20.0 0.47 1.74 1.74 92 1009.4
20260509063059 78 128 11.3 19.1 0.47 1.69 1.69 92 1009.4
20260509062556 77 126 8.7 14.8 0.94 1.64 1.64 92 1009.4
20260509062053 78 133 14.8 21.7 1.42 1.56 1.56 92 1009.4
20260509061550 78 129 13.0 23.5 2.36 1.36 1.36 91 1009.4
20260509061047 78 123 11.3 18.2 1.89 1.22 1.22 91 1009.1
20260509060545 78 131 13.0 19.1 1.42 1.13 1.13 91 1009.1
20260509060040 78 142 10.4 14.8 1.89 1.02 1.02 91 1008.8
20260509055536 78 110 10.4 14.8 0.00 0.94 0.94 91 1008.8
20260509055032 78 106 12.2 17.4 0.47 0.90 0.90 91 1008.8
20260509054529 78 110 14.8 20.0 0.47 0.85 0.85 91 1008.8
20260509054027 78 118 14.8 26.1 0.47 0.80 0.80 91 1008.8
20260509053525 79 116 13.0 21.7 0.00 0.79 0.79 91 1008.8
20260509053022 79 117 12.2 19.1 0.94 0.74 0.74 91 1008.8
20260509052519 79 117 11.3 18.2 0.00 0.71 0.71 91 1008.8
20260509052017 79 119 12.2 20.0 0.47 0.66 0.66 90 1008.8
20260509051515 79 105 14.8 21.7 0.94 0.60 0.60 90 1008.8
20260509051012 79 110 13.0 19.1 0.00 0.57 0.57 89 1008.8
20260509050508 79 113 11.3 15.6 0.00 0.55 0.55 90 1008.8
20260509050005 79 117 12.2 17.4 0.00 0.55 0.55 90 1008.3
20260509045502 79 109 13.9 23.5 0.00 0.55 0.55 90 1008.3
20260509044959 79 102 12.2 18.2 0.00 0.55 0.55 90 1008.8
20260509044457 79 114 7.8 11.3 0.00 0.53 0.53 90 1009.1
20260509043954 80 124 11.3 16.5 0.47 0.50 0.50 89 1009.1
20260509043449 80 119 9.6 13.0 0.00 0.48 0.48 89 1009.1
20260509042945 80 127 8.7 13.9 0.00 0.48 0.48 89 1008.8
20260509042443 80 120 14.8 23.5 1.42 0.41 0.41 89 1009.1
20260509041938 81 115 12.2 19.1 0.00 0.40 0.40 88 1008.8
20260509041435 81 110 9.6 16.5 0.00 0.40 0.40 88 1008.8
20260509040934 81 111 15.6 20.0 0.47 0.38 0.38 88 1009.1
20260509040432 81 103 8.7 13.0 0.00 0.37 0.37 88 1009.1
20260509035928 80 112 9.6 14.8 0.00 0.36 0.36 88 1009.4
20260509035425 80 135 7.8 12.2 0.00 0.35 0.35 87 1009.4
20260509034921 81 115 12.2 16.5 0.00 0.35 0.35 86 1009.4
20260509034419 81 110 15.6 24.3 0.00 0.35 0.35 87 1009.4
20260509033916 80 118 15.6 23.5 0.00 0.35 0.35 88 1009.4
20260509033413 80 102 10.4 13.0 0.00 0.35 0.35 88 1009.4
20260509032909 79 95 7.8 12.2 0.00 0.35 0.35 88 1009.4
20260509032407 80 96 12.2 16.5 0.00 0.35 0.35 88 1009.8
20260509031905 80 96 11.3 18.2 0.00 0.35 0.35 88 1009.8
20260509031402 80 104 13.0 17.4 0.00 0.35 0.35 88 1009.8
20260509030859 80 99 12.2 16.5 0.00 0.35 0.35 88 1009.8
20260509030357 80 95 10.4 13.9 0.00 0.35 0.35 88 1009.8
20260509025854 80 99 13.9 26.9 0.00 0.35 0.35 88 1009.4
20260509025349 80 110 10.4 19.1 0.00 0.35 0.35 88 1009.8
20260509024845 80 115 10.4 13.0 0.00 0.35 0.35 88 1010.1
20260509024341 80 112 9.6 14.8 0.00 0.35 0.35 89 1010.1
20260509023838 80 111 8.7 12.2 0.00 0.35 0.35 89 1010.1
20260509023336 80 112 12.2 16.5 0.00 0.35 0.35 89 1010.5
20260509022832 80 114 13.9 20.0 0.47 0.34 0.34 89 1010.1
20260509022330 80 110 15.6 21.7 0.00 0.34 0.34 89 1010.1
20260509021826 80 111 13.0 17.4 0.00 0.34 0.34 89 1010.1
20260509021323 80 113 11.3 18.2 0.00 0.34 0.34 90 1010.5
20260509020821 80 117 10.4 17.4 0.00 0.34 0.34 89 1010.1
20260509020319 80 118 15.6 25.2 0.00 0.32 0.32 89 1010.5
20260509015816 80 116 10.4 14.8 0.00 0.31 0.31 88 1010.5
20260509015314 81 120 14.8 26.9 0.00 0.31 0.31 87 1010.5
20260509014811 81 124 12.2 23.5 0.00 0.31 0.31 86 1010.5
20260509014308 81 120 13.0 18.2 0.00 0.31 0.31 86 1010.5
20260509013804 81 107 13.0 20.0 0.00 0.31 0.31 87 1010.5
20260509013301 81 109 10.4 13.9 0.00 0.31 0.31 87 1010.5
20260509012757 80 117 13.9 20.9 0.00 0.31 0.31 88 1010.5
20260509012254 80 110 7.8 11.3 0.00 0.31 0.31 88 1010.5
20260509011751 80 112 12.2 15.6 0.00 0.31 0.31 87 1010.8
20260509011248 80 112 13.0 17.4 0.00 0.31 0.31 87 1010.5
20260509010746 80 109 11.3 16.5 0.00 0.31 0.31 87 1010.5
20260509010242 80 114 14.8 22.6 0.00 0.31 0.31 87 1010.5
20260509005741 80 124 8.7 12.2 0.00 0.31 0.31 87 1010.5
20260509005238 80 127 9.6 13.9 0.00 0.31 0.31 88 1010.5
20260509004737 80 110 11.3 17.4 0.00 0.31 0.31 88 1010.5
20260509004235 80 108 10.4 14.8 0.00 0.31 0.31 88 1010.5
20260509003733 80 112 13.0 21.7 0.00 0.31 0.31 88 1010.5
20260509003230 80 107 12.2 18.2 0.00 0.31 0.31 88 1010.5
20260509002727 81 110 15.6 23.5 0.00 0.31 0.31 88 1010.8
20260509002225 81 119 7.8 14.8 0.00 0.31 0.31 88 1010.8
20260509001722 81 101 9.6 14.8 0.00 0.31 0.31 88 1010.8
20260509001218 81 106 8.7 14.8 0.00 0.31 0.31 87 1010.8
20260509000716 81 119 11.3 18.2 0.00 0.31 0.31 85 1010.8
20260509000213 80 124 12.2 19.1 0.00 0.31 0.31 85 1010.8
20260508235710 80 127 13.9 17.4 0.00 0.30 0.30 87 1010.5
20260508235206 80 116 13.9 21.7 0.00 0.30 0.30 88 1010.5
20260508234704 80 126 10.4 15.6 0.00 0.30 0.30 88 1010.5
20260508234200 80 137 7.0 12.2 0.00 0.30 0.30 88 1010.5
20260508233700 80 130 8.7 13.9 0.00 0.29 0.29 88 1010.5
20260508233157 80 129 13.0 17.4 0.00 0.29 0.29 89 1010.5
20260508232654 80 123 9.6 14.8 0.00 0.29 0.29 89 1010.5
20260508232150 80 124 10.4 14.8 0.00 0.29 0.29 89 1010.5
20260508231649 80 125 11.3 18.2 0.00 0.29 0.29 89 1010.1
20260508231145 79 130 7.8 11.3 0.00 0.29 0.29 89 1010.1
20260508230642 79 148 7.8 13.0 0.00 0.29 0.29 89 1009.8
20260508230138 79 142 7.8 14.8 0.00 0.29 0.29 89 1009.8
20260508225637 79 147 11.3 14.8 0.00 0.29 0.29 88 1010.1
20260508225132 79 143 10.4 14.8 0.00 0.29 0.29 88 1010.1
20260508224630 79 142 9.6 19.1 0.47 0.28 0.28 89 1010.1
20260508224128 80 141 13.0 20.9 0.00 0.28 0.28 90 1010.1
20260508223625 79 135 6.1 11.3 0.00 0.28 0.28 90 1010.1
20260508223122 79 129 9.6 13.0 0.00 0.28 0.28 90 1009.8
20260508222620 80 128 9.6 15.6 0.00 0.28 0.28 90 1009.8
20260508222116 80 124 12.2 16.5 0.00 0.28 0.28 89 1009.8
20260508221613 79 132 9.6 14.8 0.00 0.27 0.27 89 1009.4
20260508221109 79 129 10.4 18.2 0.00 0.27 0.27 89 1009.8
20260508220605 79 138 9.6 15.6 0.00 0.27 0.27 89 1009.8
20260508215559 79 132 11.3 20.9 0.00 0.26 0.26 89 1009.4
20260508215055 79 120 10.4 13.9 0.00 0.26 0.26 89 1009.4
20260508214553 78 132 8.7 13.0 0.00 0.26 0.26 89 1009.4
20260508214049 78 131 10.4 20.9 0.00 0.26 0.26 90 1009.4
20260508213546 78 131 11.3 14.8 0.00 0.26 0.26 90 1009.4
20260508213042 78 129 10.4 16.5 0.00 0.26 0.26 90 1009.1
20260508212539 78 133 13.9 21.7 0.00 0.26 0.26 91 1009.1
20260508212035 79 123 7.8 11.3 0.00 0.26 0.26 91 1008.8
20260508211531 78 132 11.3 20.0 0.00 0.26 0.26 91 1008.8
20260508211028 78 129 13.9 21.7 0.00 0.26 0.26 91 1008.8
20260508210524 78 130 13.9 21.7 0.00 0.26 0.26 90 1008.8
20260508210022 78 137 13.0 22.6 0.00 0.26 0.26 90 1008.3
20260508205518 78 131 14.8 22.6 0.00 0.26 0.26 90 1008.3
20260508205014 78 125 13.9 20.9 0.00 0.26 0.26 90 1008.0
20260508204512 78 125 14.8 25.2 0.00 0.26 0.26 90 1008.0
20260508204007 78 135 12.2 22.6 0.00 0.25 0.25 90 1008.3
20260508203503 78 123 13.0 25.2 0.00 0.24 0.24 91 1008.3
20260508202959 78 121 15.6 22.6 0.47 0.22 0.22 91 1008.0
20260508202456 78 118 12.2 17.4 0.00 0.20 0.20 91 1008.0
20260508201953 78 123 14.8 20.9 0.47 0.17 0.17 91 1008.0
20260508201450 78 113 11.3 17.4 0.47 0.15 0.15 91 1008.0
20260508200947 78 124 17.4 26.1 0.47 0.12 0.12 90 1008.0
20260508200444 78 119 17.4 24.3 0.47 0.07 0.07 90 1007.7
20260508195938 79 123 15.6 29.5 0.00 0.05 0.05 89 1007.7
20260508195437 79 111 16.5 26.1 0.00 0.03 0.03 88 1007.7
20260508194932 80 123 16.5 24.3 0.00 0.03 0.03 88 1007.7
20260508194430 80 118 14.8 23.5 0.00 0.03 0.03 87 1007.3
20260508193926 80 111 14.8 27.8 0.00 0.03 0.03 86 1007.3
20260508193424 80 115 13.0 19.1 0.00 0.03 0.03 85 1007.3
20260508192919 80 100 17.4 24.3 0.00 0.03 0.03 85 1007.0
20260508192417 80 98 14.8 26.1 0.00 0.03 0.03 85 1007.0
20260508191914 80 105 13.9 20.0 0.00 0.03 0.03 84 1007.0
20260508191411 81 116 21.7 28.7 0.00 0.03 0.03 84 1007.3
20260508190908 81 111 16.5 25.2 0.00 0.03 0.03 84 1007.3
20260508190405 81 107 16.5 22.6 0.00 0.03 0.03 85 1007.3
20260508185901 81 105 13.0 22.6 0.00 0.03 0.03 85 1007.3
20260508185359 80 104 19.1 26.9 0.00 0.03 0.03 84 1007.3
20260508184856 81 106 19.1 29.5 0.00 0.03 0.03 83 1007.0
20260508184353 81 103 16.5 21.7 0.00 0.03 0.03 84 1007.3
20260508183849 81 113 13.9 20.0 0.00 0.03 0.03 85 1007.3
20260508183346 81 114 15.6 25.2 0.00 0.03 0.03 85 1007.0
20260508182842 81 123 12.2 18.2 0.00 0.03 0.03 84 1007.3
20260508182339 81 101 15.6 22.6 0.00 0.03 0.03 84 1007.3
20260508181834 81 102 15.6 23.5 0.00 0.03 0.03 85 1007.0
20260508181331 81 98 13.0 21.7 0.00 0.03 0.03 85 1007.0
20260508180828 81 104 12.2 19.1 0.00 0.03 0.03 85 1007.0
20260508180325 81 102 13.0 20.9 0.00 0.03 0.03 85 1006.6
20260508175821 81 94 16.5 22.6 0.00 0.03 0.03 84 1006.6
20260508175318 81 106 19.1 24.3 0.00 0.03 0.03 85 1006.6
20260508174816 81 96 15.6 22.6 0.00 0.03 0.03 85 1007.0
20260508174313 81 98 11.3 17.4 0.00 0.03 0.03 85 1007.3